Regional Weather Roundup
Issued by NWS Glasgow, MT

Home | Current Version | Previous Version | Text Only | Print | Product List | Glossary On
Versions: 1 2 3 4 5 6 7 8 9 10 11 12 13 14 15 16 17 18 19 20 21 22 23 24 25 26 27 28 29 30 31 32 33 34 35 36 37 38 39 40 41 42 43 44 45 46 47 48 49 50
000
ASUS45 KGGW 271815
RWRGGW
HOURLY WEATHER ROUNDUP FOR NORTHEAST MONTANA
NATIONAL WEATHER SERVICE GLASGOW MONTANA
1100 AM MST THU NOV 27 2014

NOTE: "FAIR" INDICATES FEW OR NO CLOUDS BELOW 12,000 FEET WITH NO
SIGNIFICANT WEATHER AND/OR OBSTRUCTIONS TO VISISBILITY.

NORTHEAST MONTANA


CITY           SKY/WX    TMP DP  RH WIND       PRES   REMARKS
GLASGOW        CLOUDY    26  23  88 E14       29.82F
6HR MIN TEMP:  20; 6HR MAX TEMP:  26; 6HR PCP:  0.07;

PLENTYWOOD       N/A     18  16  92 E7          N/A
WOLF POINT     CLOUDY    29  26  89 SE10      29.87F
JORDAN           N/A     36  32  85 S5        29.81F
WINNETT          N/A     44  30  57 S3          N/A
SIDNEY         PTSUNNY   27  19  74 SE16      29.98F
GLENDIVE       PTSUNNY   28  21  74 SE10      29.91F
MALTA            N/A     36  30  80 SE6         N/A
SCOBEY           N/A     21  14  74 E16G26    29.86F VSB 1/4

FORT PECK REPORTS


CITY           SKY/WX    TMP DP  RH WIND       PRES   REMARKS
FORT PECK        N/A     31  29  92 SE18        N/A
THE PINES        N/A     33  30  88 S10G20      N/A

SOUTHEAST MONTANA


CITY           SKY/WX    TMP DP  RH WIND       PRES   REMARKS
BILLINGS       MOSUNNY   42  30  62 SW22G28   29.90F
MILES CITY     CLOUDY    31  26  82 SE14      29.88F
BAKER          CLOUDY    27  21  78 SE16      29.93F
LIVINGSTON     CLOUDY    53  28  38 SW17G29   29.97S

CENTRAL MONTANA


CITY           SKY/WX    TMP DP  RH WIND       PRES   REMARKS
HAVRE          PTSUNNY   36  32  85 CALM      29.75S
LEWISTOWN      PTSUNNY   48  31  51 SW16      29.85S
GREAT FALLS    SUNNY     53  35  50 SW32G43   29.78F
CUT BANK       SUNNY     47  35  63 W36G45    29.70R
HELENA         MOSUNNY   28  26  92 CALM      29.93F
BUTTE          PTSUNNY   44  30  57 SW12      30.06R
BOZEMAN        CLOUDY    44  29  55 S15       30.02R

WESTERN MONTANA


CITY           SKY/WX    TMP DP  RH WIND       PRES   REMARKS
MISSOULA       CLOUDY    40  35  83 VRB6      29.99S
KALISPELL      NOT AVBL

NORTH DAKOTA


CITY           SKY/WX    TMP DP  RH WIND       PRES   REMARKS
WILLISTON      SNOW      20  16  84 E10       30.01F VSB 1/2
DICKINSON      CLOUDY    19  15  84 S21G29    29.99F
MINOT          CLOUDY    11   4  73 SE10      30.13F WCI  -3
BISMARCK       CLOUDY     7   3  84 SE14      30.21F WCI -10

SOUTHERN SASKATCHEWAN


CITY           SKY/WX    TMP DP  RH WIND       PRES   REMARKS
REGINA         LGT SNOW  10   7  85 SE14      30.04F DRFTSNOWWCI  -5
MOOSE JAW      LGT SNOW  12  12 100 E16       29.99  VSB 3/4 WCI  -4
ESTEVAN        LGT SNOW  12   9  85 E12       30.07  FOG     WCI  -2
SWIFT CURRENT  LGT SNOW  21  19  93 E20G25    29.79F VSB 3/4



USA.gov is the U.S. government's official web portal to all federal, state and local government web resources and services.